SVVA/VLN METAR and TAF weather

Enter ICAO airport designator
Station Type Date Time Source
SVVA METAR 2019/02/17 15:03 UTC NOAA

SVVA 171503Z ///// 9999 FEW020 29/20 Q1018


Station Type Date Time Source
SVVA Decoded METAR 2019/02/17 15:03 UTC NOAA

Valencia, Venezuela (SVVA) 10-10N 067-56W 431M
Feb 17, 2019 - 10:03 AM EST / 2019.02.17 1503 UTC
Visibility: greater than 7 mile(s):0
Sky conditions: mostly clear
Temperature: 84 F (29 C)
Dew Point: 68 F (20 C)
Relative Humidity: 58%
Pressure (altimeter): 30.06 in. Hg (1018 hPa)
ob: SVVA 171503Z ///// 9999 FEW020 29/20 Q1018
cycle: 15

Station Type Date Time Source
SVVA TAF 2019/04/19 12:30 UTC NOAA

TAF SVVA 191030Z 1912/2012 11003KT 9999 FEW016 SCT250 TX3319/20Z TN23/2010Z
TEMPO 1915/1923 18004KT SCT016 SCT100
TEMPO 2004/2008 25005KT 9999 SCT016 BKN100

Example: see airport list